Rock Springs Sweetwater County Airport
KRKS : now visible

Airfield :











YOU CAN JOIN US ON...

 
LOGIN :

Register | Disclaimer

   EN    FR    IT 

 









Legend :    VFR   Marginal VFR   IFR   Intensive IFR   Very Intensive IFR
Visi :
Ceiling :
>= 8 km
>= 3000ft
5 to 8 km
1000 to 3000 ft
1500m to 5 km
500 to 1000 ft
800 to 1500m
200 to 500 ft
< 800m
< 200 ft
Symbols :   Thunderstorms  Fog  Heavy snow  Heavy precipitations  Wind > 20 kt






- Airport Elevation : 6764 ft
- IATA code : RKS


KRKS - Rock Springs Sweetwater County

CURRENT METAR :
  • 251254Z AUTO 00000KT 10SM CLR M07/M11 A3002 RMK AO2 SLP206 T10671106

EXPIRED METARs :
  • 251154Z AUTO 23008KT 10SM CLR M07/M11 A3003 RMK AO2 SLP211 T10721106 11061 21078 58006
  • 251054Z AUTO 24010KT 10SM CLR M07/M10 A3005 RMK AO2 SLP208 T10721100

TAF KRKS
Valid from the 25 at 12:00 until the 26 at 12:00 UTC


251123Z 2512/2612 24008KT P6SM SCT250
FM252100 28015G25KT P6SM FEW200
KZLC FIR / North America



MET'MAP, your aeronautical weather chart ! - Copyright ORBIFLY December 2007 - Disclaimer

ORBIFLY MET'MAP TEAM :

Programming & Development : Alexandra Zaïnal
Concept & original design : Baudouin d'Aumeries
Assistance for programming : Marc-Olivier Méhu
Technical & hardware support : Manuel Goepfert

Contact : metmap@orbifly.com




SOURCES & CREDITS :

   NOAA       Earth
Advisory